Weather History for New York, NY

Change the Weather History Date:

Thursday, September 22, 2011

  Actual Average Record
Temperature  
Mean Temperature 74 °F 67 °F  
Max Temperature 80 °F 74 °F 93 °F (1970)
Min Temperature 68 °F 60 °F 47 °F (1962)
Degree Days  
Heating Degree Days 0 2  
Month to date heating degree days 19 12  
Since 1 July heating degree days 19 13  
Cooling Degree Days 9 4  
Month to date cooling degree days 139 138  
Year to date cooling degree days 1292 1171  
Growing Degree Days 23 (Base 50)    
Moisture  
Dew Point 66 °F    
Average Humidity 79    
Maximum Humidity 93    
Minimum Humidity 64    
Precipitation  
Precipitation 0.02 in 0.12 in 1.00 in (1996)
Month to date precipitation 4.30 2.69  
Year to date precipitation 50.70 32.94  
Snow  
Snow 0.00 in 0.00 in - ()
Month to date snowfall 0.0 0.0  
Since 1 July snowfall 0.0 0.0  
Snow Depth 0.00 in    
Sea Level Pressure  
Sea Level Pressure 30.10 in    
Wind  
Wind Speed 6 mph (SSE)    
Max Wind Speed 15 mph    
Max Gust Speed 18 mph    
Visibility 9 miles    
Events Rain    
T = Trace of Precipitation, MM = Missing Value Source: NWS Daily Summary

Daily Weather History Graph

Daily Weather History Graph

Search for Another Location

Airport:

Trip Planner

Search our weather history database for the weather conditions in past years. The results will help you decide how hot, cold, wet, or windy it might be!

Date:

Astronomy

Sep. 22, 2011 Rise Set
Actual Time 6:42 AM EDT 6:53 PM EDT
Civil Twilight 6:15 AM EDT 7:20 PM EDT
Nautical Twilight 5:43 AM EDT 7:52 PM EDT
Astronomical Twilight 5:10 AM EDT 8:25 PM EDT
Moon 12:59 AM EDT (9/22) 3:45 PM EDT (9/22)
Length of Visible Light 13h 05m
Length of Day
12h 10m
Waning Crescent, 29% of the Moon is Illuminated
Sep 22
Waning Crescent
Sep 27
New
Oct 3
First Quarter
Oct 11
Full
Oct 19
Last Quarter

Hourly Weather History & Observations

Time (EDT) Temp. Dew Point Humidity Pressure Visibility Wind Dir Wind Speed Gust Speed Precip Events Conditions
12:14 AM 69.8 °F 66.2 °F 88% 30.16 in 10.0 mi SE 5.8 mph - N/A   Overcast
12:51 AM 69.1 °F 66.0 °F 90% 30.14 in 10.0 mi SE 4.6 mph - N/A   Overcast
1:42 AM 69.8 °F 66.2 °F 88% 30.13 in 10.0 mi ESE 3.5 mph - 0.00 in Rain Light Rain
1:51 AM 69.1 °F 66.9 °F 93% 30.12 in 7.0 mi ESE 4.6 mph - 0.00 in Rain Light Rain
2:44 AM 69.8 °F 66.2 °F 88% 30.11 in 10.0 mi SE 3.5 mph - 0.02 in   Overcast
2:51 AM 69.1 °F 66.9 °F 93% 30.11 in 10.0 mi South 6.9 mph - 0.02 in   Overcast
3:51 AM 69.1 °F 66.9 °F 93% 30.09 in 9.0 mi South 4.6 mph - N/A   Overcast
4:51 AM 69.1 °F 66.9 °F 93% 30.09 in 9.0 mi South 4.6 mph - N/A   Overcast
5:51 AM 68.0 °F 66.9 °F 96% 30.08 in 8.0 mi South 4.6 mph - 0.00 in   Overcast
6:51 AM 69.8 °F 66.2 °F 88% 30.10 in 5.0 mi South 3.5 mph - N/A   Overcast
7:51 AM 69.1 °F 66.9 °F 93% 30.11 in 5.0 mi South 5.8 mph - N/A   Overcast
8:46 AM 69.8 °F 66.2 °F 88% 30.11 in 3.0 mi Variable 5.8 mph - 0.00 in   Light Drizzle
8:51 AM 70.0 °F 66.9 °F 90% 30.11 in 4.0 mi Variable 4.6 mph - 0.00 in   Light Drizzle
9:51 AM 72.0 °F 66.0 °F 81% 30.11 in 10.0 mi SE 6.9 mph - 0.00 in   Mostly Cloudy
10:02 AM 73.4 °F 66.2 °F 78% 30.10 in 10.0 mi SSE 6.9 mph - N/A   Mostly Cloudy
10:44 AM 73.4 °F 66.2 °F 78% 30.11 in 10.0 mi SSW 8.1 mph - N/A   Mostly Cloudy
10:51 AM 75.0 °F 66.9 °F 76% 30.12 in 10.0 mi Variable 5.8 mph - N/A   Mostly Cloudy
11:51 AM 75.9 °F 66.0 °F 71% 30.10 in 10.0 mi SSW 6.9 mph - N/A   Mostly Cloudy
12:51 PM 77.0 °F 64.9 °F 66% 30.10 in 10.0 mi Variable 3.5 mph - N/A   Overcast
1:33 PM 78.8 °F 66.2 °F 65% 30.09 in 10.0 mi Calm Calm - N/A   Mostly Cloudy
1:51 PM 78.8 °F 66.2 °F 65% 30.08 in 10.0 mi SSW 4.6 mph - N/A   Mostly Cloudy
2:51 PM 77.0 °F 66.0 °F 69% 30.08 in 10.0 mi South 13.8 mph - N/A   Mostly Cloudy
3:51 PM 73.9 °F 66.0 °F 76% 30.08 in 10.0 mi South 13.8 mph - N/A   Mostly Cloudy
4:51 PM 72.0 °F 66.0 °F 81% 30.08 in 10.0 mi South 12.7 mph - N/A   Overcast
5:44 PM 71.6 °F 66.2 °F 83% 30.09 in 10.0 mi SSE 11.5 mph - N/A   Mostly Cloudy
5:51 PM 72.0 °F 66.0 °F 81% 30.09 in 10.0 mi SSE 9.2 mph - N/A   Mostly Cloudy
6:11 PM 71.6 °F 66.2 °F 83% 30.09 in 10.0 mi Variable 6.9 mph - N/A   Mostly Cloudy
6:49 PM 71.6 °F 66.2 °F 83% 30.09 in 10.0 mi South 10.4 mph - N/A   Mostly Cloudy
6:51 PM 72.0 °F 66.9 °F 84% 30.09 in 10.0 mi Variable 5.8 mph - N/A   Mostly Cloudy
7:01 PM 71.6 °F 66.2 °F 83% 30.09 in 10.0 mi South 6.9 mph - N/A   Overcast
7:45 PM 71.6 °F 66.2 °F 83% 30.09 in 10.0 mi South 5.8 mph - N/A   Scattered Clouds
7:51 PM 71.1 °F 66.9 °F 87% 30.09 in 10.0 mi SSE 8.1 mph - N/A   Scattered Clouds
8:51 PM 72.0 °F 66.9 °F 84% 30.10 in 10.0 mi Variable 4.6 mph - N/A   Mostly Cloudy
9:51 PM 71.1 °F 66.9 °F 87% 30.11 in 10.0 mi Calm Calm - N/A   Mostly Cloudy
10:51 PM 72.0 °F 68.0 °F 87% 30.11 in 10.0 mi SSE 3.5 mph - N/A   Mostly Cloudy
11:51 PM 72.0 °F 68.0 °F 87% 30.11 in 10.0 mi South 3.5 mph - N/A   Overcast